When you browse on this site, cookies collect data to enhance your experience and personalize the content and advertising you see.
Visit our Privacy Policy to learn more. By continuing to use the site, you agree to this use of cookies and data.
  • In Hungary
  • List of Countries
  • For 7 days
  • Water Temperature
  • Satellite Maps
  • Weather Map
  • News
  • Weather Widgets
  • user-avatar
    Login

    Hourly Weather Olbrachtowice

    Today, 19 December, Wednesday

    Time Temperature Precipitation Wind Pressure Humidity
    00:00 -2°C° 0 mm 3 mps 756 mmHg 90%
    01:00 -2°C° 0 mm 3 mps 756 mmHg 90%
    02:00 -2°C° 0 mm 3 mps 755 mmHg 90%
    03:00 -2°C° 0 mm 3 mps 755 mmHg 89%
    04:00 -2°C° 0 mm 3 mps 755 mmHg 89%
    05:00 -2°C° 0 mm 3 mps 754 mmHg 89%
    06:00 -2°C° 0 mm 3 mps 754 mmHg 88%
    07:00 -2°C° 0 mm 3 mps 754 mmHg 88%
    08:00 -2°C° 0 mm 4 mps 754 mmHg 85%
    09:00 -2°C° 0 mm 4 mps 753 mmHg 82%
    10:00 -1°C° 0 mm 4 mps 753 mmHg 79%
    11:00 0°C° 0 mm 4 mps 753 mmHg 77%
    12:00 0°C° 0 mm 5 mps 753 mmHg 75%
    13:00 +1°C° 0 mm 5 mps 752 mmHg 73%
    14:00 0°C° 0 mm 4 mps 752 mmHg 74%
    15:00 -1°C° 0 mm 4 mps 752 mmHg 76%
    16:00 -1°C° 0 mm 4 mps 752 mmHg 77%
    17:00 -1°C° 0 mm 4 mps 751 mmHg 77%
    18:00 -2°C° 0 mm 4 mps 751 mmHg 77%
    19:00 -2°C° 0 mm 4 mps 751 mmHg 77%
    20:00 -2°C° 0 mm 4 mps 751 mmHg 77%
    21:00 -2°C° 0 mm 4 mps 751 mmHg 76%
    22:00 -2°C° 0 mm 4 mps 751 mmHg 76%
    23:00 -1°C° 0 mm 3 mps 751 mmHg 76%

    Tomorrow, 20 December, Thursday

    Time Temperature Precipitation Wind Pressure Humidity
    00:00 -1°C° 0 mm 3 mps 751 mmHg 75%
    01:00 -1°C° 0 mm 3 mps 751 mmHg 75%
    02:00 -1°C° 0 mm 3 mps 751 mmHg 76%
    03:00 -1°C° 0 mm 3 mps 750 mmHg 76%
    04:00 -2°C° 0 mm 3 mps 750 mmHg 76%
    05:00 -2°C° 0 mm 3 mps 750 mmHg 77%
    06:00 -2°C° 0 mm 3 mps 750 mmHg 78%
    07:00 -2°C° 0 mm 3 mps 750 mmHg 78%
    08:00 -2°C° 0 mm 3 mps 750 mmHg 77%
    09:00 -2°C° 0 mm 3 mps 750 mmHg 76%
    10:00 -2°C° 0 mm 4 mps 751 mmHg 75%
    11:00 -1°C° 0.1 mm 3 mps 750 mmHg 76%
    12:00 0°C° 0.1 mm 3 mps 750 mmHg 77%
    13:00 0°C° 0.1 mm 3 mps 750 mmHg 78%
    14:00 0°C° 0.2 mm 3 mps 750 mmHg 81%
    15:00 0°C° 0.2 mm 3 mps 750 mmHg 84%
    16:00 0°C° 0.2 mm 3 mps 750 mmHg 86%
    17:00 0°C° 0.1 mm 3 mps 750 mmHg 87%
    18:00 0°C° 0.1 mm 3 mps 750 mmHg 87%
    19:00 +1°C° 0.1 mm 3 mps 750 mmHg 87%
    20:00 0°C° 0 mm 4 mps 750 mmHg 87%
    21:00 0°C° 0 mm 4 mps 750 mmHg 88%
    22:00 0°C° 0 mm 4 mps 750 mmHg 88%
    23:00 0°C° 0 mm 4 mps 751 mmHg 88%

    Day after tomorrow, 21 December, Friday

    Time Temperature Precipitation Wind Pressure Humidity
    00:00 0°C° 0 mm 4 mps 751 mmHg 88%
    01:00 0°C° 0 mm 4 mps 751 mmHg 89%
    02:00 0°C° 0 mm 4 mps 750 mmHg 88%
    03:00 0°C° 0 mm 4 mps 750 mmHg 88%
    04:00 0°C° 0 mm 4 mps 750 mmHg 88%
    05:00 0°C° 0 mm 4 mps 750 mmHg 88%
    06:00 0°C° 0 mm 4 mps 750 mmHg 87%
    07:00 0°C° 0 mm 4 mps 750 mmHg 87%
    08:00 +1°C° 0 mm 5 mps 749 mmHg 86%
    09:00 +1°C° 0 mm 5 mps 749 mmHg 86%
    10:00 +1°C° 0 mm 5 mps 749 mmHg 85%
    11:00 +2°C° 0.1 mm 5 mps 748 mmHg 85%
    12:00 +2°C° 0.1 mm 5 mps 748 mmHg 84%
    13:00 +2°C° 0.1 mm 5 mps 747 mmHg 84%
    14:00 +2°C° 0.4 mm 5 mps 746 mmHg 84%
    15:00 +2°C° 0.4 mm 5 mps 746 mmHg 85%
    16:00 +2°C° 0.4 mm 5 mps 745 mmHg 85%
    17:00 +2°C° 0.8 mm 6 mps 744 mmHg 85%
    18:00 +2°C° 0.8 mm 6 mps 743 mmHg 84%
    19:00 +2°C° 0.8 mm 7 mps 743 mmHg 84%
    20:00 +3°C° 0.5 mm 7 mps 742 mmHg 84%
    21:00 +4°C° 0.5 mm 7 mps 742 mmHg 84%
    22:00 +5°C° 0.5 mm 7 mps 742 mmHg 84%
    23:00 +5°C° 0.1 mm 7 mps 742 mmHg 85%

    22 December, Saturday

    Time Temperature Precipitation Wind Pressure Humidity
    00:00 +5°C° 0.1 mm 7 mps 742 mmHg 86%
    01:00 +5°C° 0.1 mm 6 mps 742 mmHg 86%
    02:00 +4°C° 0 mm 6 mps 743 mmHg 85%
    03:00 +4°C° 0 mm 6 mps 743 mmHg 83%
    04:00 +3°C° 0 mm 6 mps 743 mmHg 81%
    05:00 +3°C° 0 mm 6 mps 743 mmHg 82%
    06:00 +3°C° 0 mm 5 mps 744 mmHg 82%
    07:00 +3°C° 0 mm 5 mps 744 mmHg 82%
    08:00 +3°C° 0 mm 5 mps 744 mmHg 82%
    09:00 +5°C° 0 mm 5 mps 744 mmHg 81%
    10:00 +5°C° 0 mm 5 mps 744 mmHg 80%
    11:00 +6°C° 0.1 mm 5 mps 743 mmHg 81%
    12:00 +6°C° 0.1 mm 5 mps 742 mmHg 82%
    13:00 +7°C° 0.1 mm 5 mps 742 mmHg 83%
    14:00 +7°C° 0.5 mm 6 mps 741 mmHg 83%
    15:00 +6°C° 0.5 mm 7 mps 741 mmHg 83%
    16:00 +7°C° 0.5 mm 8 mps 741 mmHg 82%
    17:00 +6°C° 0 mm 7 mps 741 mmHg 81%
    18:00 +5°C° 0 mm 7 mps 742 mmHg 79%
    19:00 +5°C° 0 mm 7 mps 742 mmHg 77%
    20:00 +5°C° 0 mm 7 mps 743 mmHg 78%
    21:00 +5°C° 0 mm 7 mps 743 mmHg 79%
    22:00 +5°C° 0 mm 7 mps 744 mmHg 81%
    23:00 +5°C° 0.1 mm 7 mps 744 mmHg 81%

    23 December, Sunday

    Time Temperature Precipitation Wind Pressure Humidity
    00:00 +4°C° 0.1 mm 7 mps 745 mmHg 81%
    01:00 +4°C° 0.1 mm 7 mps 745 mmHg 81%
    02:00 +4°C° 0.1 mm 7 mps 745 mmHg 81%
    03:00 +4°C° 0.1 mm 7 mps 746 mmHg 81%
    04:00 +4°C° 0.1 mm 7 mps 746 mmHg 81%
    05:00 +4°C° 0 mm 7 mps 746 mmHg 81%
    06:00 +4°C° 0 mm 7 mps 747 mmHg 81%
    07:00 +4°C° 0 mm 6 mps 747 mmHg 82%
    08:00 +4°C° 0 mm 7 mps 747 mmHg 80%
    09:00 +4°C° 0 mm 7 mps 748 mmHg 79%
    10:00 +4°C° 0 mm 7 mps 748 mmHg 78%
    11:00 +4°C° 0 mm 7 mps 748 mmHg 76%
    12:00 +5°C° 0 mm 7 mps 748 mmHg 75%
    13:00 +5°C° 0 mm 7 mps 748 mmHg 74%
    14:00 +4°C° 0 mm 6 mps 748 mmHg 76%
    15:00 +4°C° 0 mm 6 mps 748 mmHg 77%
    16:00 +5°C° 0 mm 5 mps 749 mmHg 79%
    17:00 +5°C° 0.1 mm 5 mps 749 mmHg 80%
    18:00 +3°C° 0.1 mm 5 mps 749 mmHg 80%
    19:00 +3°C° 0.1 mm 5 mps 749 mmHg 80%
    20:00 +3°C° 0 mm 6 mps 749 mmHg 80%
    21:00 +3°C° 0 mm 6 mps 750 mmHg 79%
    22:00 +3°C° 0 mm 6 mps 750 mmHg 79%
    23:00 +3°C° 0 mm 6 mps 750 mmHg 80%

    24 December, Monday

    Time Temperature Precipitation Wind Pressure Humidity
    00:00 +2°C° 0 mm 6 mps 750 mmHg 82%
    01:00 +2°C° 0 mm 5 mps 750 mmHg 83%
    02:00 +2°C° 0 mm 5 mps 750 mmHg 84%
    03:00 +3°C° 0 mm 4 mps 751 mmHg 85%
    04:00 +3°C° 0 mm 4 mps 751 mmHg 86%
    05:00 +3°C° 0 mm 3 mps 751 mmHg 87%
    06:00 +3°C° 0 mm 3 mps 751 mmHg 88%
    07:00 +3°C° 0 mm 3 mps 751 mmHg 89%
    08:00 +3°C° 0.1 mm 3 mps 751 mmHg 88%
    09:00 +3°C° 0.1 mm 3 mps 751 mmHg 87%
    10:00 +3°C° 0.1 mm 3 mps 752 mmHg 86%
    11:00 +4°C° 0.1 mm 3 mps 751 mmHg 84%
    12:00 +4°C° 0.1 mm 3 mps 751 mmHg 82%
    13:00 +5°C° 0.1 mm 3 mps 751 mmHg 80%
    14:00 +4°C° 0.1 mm 3 mps 751 mmHg 83%
    15:00 +4°C° 0.1 mm 3 mps 751 mmHg 85%
    16:00 +3°C° 0.1 mm 3 mps 752 mmHg 87%
    17:00 +3°C° 0 mm 3 mps 752 mmHg 88%
    18:00 +3°C° 0 mm 3 mps 752 mmHg 88%
    19:00 +3°C° 0 mm 2 mps 752 mmHg 89%
    20:00 +2°C° 0 mm 3 mps 752 mmHg 89%
    21:00 +2°C° 0 mm 3 mps 752 mmHg 89%
    22:00 +2°C° 0 mm 3 mps 753 mmHg 88%
    23:00 +1°C° 0 mm 3 mps 752 mmHg 89%
    Show more